IS0KST Weather Reports


time (UTC)temp
C
wind
direction
speed
KPH
gust
KPH
rain 1hr
cm
rain 24hr
cm
rain mn
cm
humidity
%
barometer
mb
20260505230003 17 106 1.6 4.8 0.00 0.15 0.00 89 1013.0
20260505225504 17 93 3.2 8.0 0.00 0.15 0.00 89 1013.1
20260505225003 17 79 3.2 4.8 0.00 0.15 0.00 89 1013.2
20260505224504 17 76 1.6 3.2 0.00 0.15 0.00 89 1013.2
20260505224003 17 76 1.6 3.2 0.00 0.15 0.00 89 1013.2
20260505223504 17 75 1.6 3.2 0.00 0.15 0.00 89 1013.3
20260505223003 17 75 0.0 3.2 0.00 0.15 0.00 89 1013.3
20260505222503 17 74 0.0 1.6 0.00 0.15 0.00 89 1013.0
20260505222003 17 74 3.2 8.0 0.00 0.15 0.00 89 1013.0
20260505221503 17 99 3.2 9.7 0.00 0.15 0.00 90 1013.1
20260505221003 17 80 3.2 8.0 0.00 0.15 0.00 90 1013.1
20260505220504 17 91 4.8 11.3 0.00 0.15 0.00 90 1013.2
20260505220004 17 78 3.2 4.8 0.00 0.15 0.00 90 1013.2
20260505215504 17 86 3.2 11.3 0.00 0.15 0.15 90 1013.3
20260505215003 17 93 3.2 8.0 0.03 0.15 0.15 90 1013.4
20260505214004 17 85 3.2 8.0 0.03 0.15 0.15 90 1013.6
20260505213504 17 83 4.8 9.7 0.03 0.15 0.15 90 1013.7
20260505213004 17 87 4.8 4.8 0.03 0.15 0.15 90 1013.7
20260505212504 17 84 1.6 8.0 0.03 0.15 0.15 90 1013.7
20260505212003 17 92 3.2 4.8 0.03 0.15 0.15 90 1013.7
20260505211504 17 83 4.8 11.3 0.03 0.15 0.15 90 1013.7
20260505211004 18 90 3.2 8.0 0.03 0.15 0.15 90 1013.7
20260505210504 18 93 3.2 11.3 0.03 0.15 0.15 90 1013.7
20260505210004 18 101 4.8 12.9 0.03 0.15 0.15 90 1013.7
20260505205504 18 89 4.8 11.3 0.03 0.15 0.15 90 1013.9
20260505205004 18 100 4.8 12.9 0.00 0.13 0.13 90 1014.1
20260505204504 18 102 4.8 11.3 0.00 0.13 0.13 90 1014.2
20260505204004 18 131 3.2 11.3 0.00 0.13 0.13 89 1014.2
20260505203503 18 113 3.2 11.3 0.00 0.13 0.13 89 1014.2
20260505203004 18 133 4.8 16.1 0.00 0.13 0.13 89 1014.1
20260505202503 18 120 4.8 12.9 0.00 0.13 0.13 89 1014.0
20260505202004 18 135 4.8 12.9 0.00 0.13 0.13 89 1013.9
20260505201504 18 114 6.4 11.3 0.00 0.13 0.13 89 1013.8
20260505201004 18 122 6.4 12.9 0.00 0.13 0.13 89 1013.7
20260505200503 18 131 6.4 12.9 0.00 0.13 0.13 89 1013.5
20260505195504 18 119 4.8 12.9 0.00 0.13 0.13 88 1013.5
20260505195004 18 106 6.4 11.3 0.00 0.13 0.13 88 1013.4
20260505194504 18 125 6.4 14.5 0.00 0.13 0.13 88 1013.2
20260505194004 18 129 4.8 12.9 0.00 0.13 0.13 88 1013.1
20260505193504 18 144 6.4 12.9 0.00 0.13 0.13 88 1013.1
20260505193004 18 115 4.8 12.9 0.00 0.13 0.13 88 1013.0
20260505192503 18 107 4.8 11.3 0.00 0.13 0.13 88 1012.8
20260505192004 18 118 4.8 11.3 0.00 0.13 0.13 88 1012.7
20260505191504 18 107 4.8 12.9 0.00 0.13 0.13 88 1012.6
20260505191004 18 97 4.8 11.3 0.00 0.13 0.13 88 1012.6
20260505190504 18 124 3.2 9.7 0.00 0.13 0.13 88 1012.5
20260505190004 18 110 6.4 11.3 0.00 0.13 0.13 88 1012.5
20260505185504 18 123 3.2 9.7 0.00 0.13 0.13 88 1012.5
20260505185003 18 98 4.8 9.7 0.00 0.13 0.13 88 1012.5
20260505184003 18 133 4.8 8.0 0.00 0.13 0.13 88 1012.4
20260505183503 18 122 1.6 4.8 0.00 0.13 0.13 88 1012.3
20260505183003 18 100 4.8 9.7 0.00 0.13 0.13 88 1012.2
20260505182503 18 101 4.8 8.0 0.00 0.13 0.13 88 1012.3
20260505181504 18 123 3.2 11.3 0.00 0.13 0.13 88 1012.3
20260505181004 18 106 4.8 11.3 0.00 0.13 0.13 88 1012.4
20260505180004 18 115 4.8 12.9 0.00 0.13 0.13 88 1012.4
20260505175504 18 103 3.2 11.3 0.00 0.13 0.13 87 1012.4
20260505175004 18 130 3.2 9.7 0.00 0.13 0.13 87 1012.3
20260505174504 18 111 4.8 11.3 0.00 0.13 0.13 87 1012.3
20260505174004 18 123 4.8 8.0 0.00 0.13 0.13 87 1012.4
20260505173003 18 140 4.8 11.3 0.00 0.13 0.13 87 1012.4
20260505172504 18 123 4.8 9.7 0.00 0.13 0.13 87 1012.4
20260505172004 18 126 4.8 12.9 0.00 0.13 0.13 87 1012.4
20260505171504 18 130 4.8 11.3 0.00 0.13 0.13 86 1012.4
20260505171004 18 91 8.0 11.3 0.00 0.13 0.13 86 1012.4
20260505170504 18 117 4.8 11.3 0.00 0.13 0.13 86 1012.5
20260505165504 18 122 8.0 14.5 0.00 0.13 0.13 86 1012.6
20260505165004 18 103 4.8 11.3 0.00 0.13 0.13 86 1012.7
20260505164504 18 86 3.2 9.7 0.00 0.13 0.13 86 1012.6
20260505164004 18 100 4.8 11.3 0.00 0.13 0.13 85 1012.5
20260505163503 19 119 4.8 12.9 0.00 0.13 0.13 86 1012.6
20260505163003 18 107 4.8 12.9 0.00 0.13 0.13 86 1012.6
20260505162504 18 143 4.8 12.9 0.00 0.13 0.13 85 1012.8
20260505162004 18 114 6.4 12.9 0.00 0.13 0.13 85 1012.9
20260505161504 19 128 4.8 12.9 0.00 0.13 0.13 85 1012.8
20260505161004 19 119 8.0 12.9 0.00 0.13 0.13 85 1012.8
20260505153004 19 122 8.0 11.3 0.00 0.13 0.13 84 1013.0
20260505152504 19 120 6.4 16.1 0.00 0.13 0.13 84 1013.0
20260505152004 19 98 4.8 11.3 0.00 0.13 0.13 84 1013.0
20260505151503 19 129 6.4 11.3 0.00 0.13 0.13 84 1013.0
20260505151004 19 108 6.4 12.9 0.00 0.13 0.13 84 1013.0
20260505150504 19 99 8.0 12.9 0.00 0.13 0.13 84 1013.0
20260505140503 20 115 8.0 14.5 0.00 0.13 0.13 84 1013.6
20260505124503 19 122 8.0 14.5 0.00 0.10 0.10 86 1014.0
20260505124004 19 139 8.0 16.1 0.00 0.10 0.10 86 1014.0
20260505123504 19 107 8.0 12.9 0.00 0.10 0.10 86 1014.0
20260505122504 19 159 4.8 14.5 0.00 0.10 0.10 87 1013.9
20260505122004 19 101 4.8 12.9 0.00 0.10 0.10 88 1013.9
20260505121504 19 130 3.2 11.3 0.00 0.10 0.10 89 1013.8
20260505121004 18 88 8.0 12.9 0.00 0.10 0.10 89 1013.8
20260505120005 18 102 3.2 11.3 0.00 0.10 0.10 90 1014.1
20260505115504 18 127 3.2 12.9 0.00 0.10 0.10 90 1014.2
20260505115004 18 99 3.2 12.9 0.00 0.10 0.10 90 1014.4
20260505113504 18 108 4.8 14.5 0.00 0.10 0.10 91 1014.6
20260505113004 18 149 4.8 11.3 0.00 0.10 0.10 91 1014.5
20260505112504 18 107 6.4 14.5 0.00 0.10 0.10 91 1014.5
20260505112003 18 114 4.8 9.7 0.00 0.10 0.10 91 1014.5
20260505111003 18 98 4.8 11.3 0.03 0.10 0.10 91 1014.5
20260505110503 18 106 6.4 12.9 0.05 0.10 0.10 91 1014.4
20260505102004 18 104 4.8 12.9 0.05 0.10 0.10 88 1015.1
20260505101003 18 118 4.8 11.3 0.03 0.08 0.08 88 1015.2
20260505100504 18 112 4.8 12.9 0.00 0.05 0.05 87 1015.3
20260505100004 18 110 3.2 11.3 0.00 0.05 0.05 87 1015.2
20260505094003 18 143 3.2 4.8 0.00 0.05 0.05 85 1015.0
20260505093504 18 137 3.2 4.8 0.00 0.05 0.05 85 1015.0
20260505093004 18 106 3.2 4.8 0.00 0.05 0.05 85 1015.0
20260505092503 18 100 1.6 4.8 0.00 0.05 0.05 85 1014.9
20260505092004 18 104 1.6 4.8 0.00 0.05 0.05 85 1014.9
20260505091504 18 125 1.6 4.8 0.00 0.05 0.05 84 1015.0
20260505091004 18 123 3.2 4.8 0.00 0.05 0.05 83 1014.8
20260505090503 18 139 3.2 4.8 0.00 0.05 0.05 83 1014.7
20260505090004 18 115 1.6 4.8 0.00 0.05 0.05 82 1014.4
20260505085004 18 101 3.2 4.8 0.00 0.05 0.05 82 1014.2
20260505084504 18 119 3.2 4.8 0.00 0.05 0.05 82 1014.2
20260505084003 18 141 1.6 4.8 0.00 0.05 0.05 82 1014.3
20260505083503 18 128 3.2 4.8 0.00 0.05 0.05 83 1014.2
20260505083004 18 155 3.2 4.8 0.00 0.05 0.05 83 1014.0
20260505082004 18 104 3.2 9.7 0.00 0.05 0.05 84 1013.8
20260505081003 18 112 3.2 4.8 0.00 0.05 0.05 84 1013.9
20260505080504 18 106 3.2 4.8 0.00 0.05 0.05 85 1013.9
20260505080004 18 102 3.2 4.8 0.00 0.05 0.05 86 1014.0
20260505075004 18 92 1.6 4.8 0.00 0.05 0.05 87 1013.9
20260505074503 18 89 3.2 9.7 0.00 0.05 0.05 87 1013.9
20260505074004 18 92 3.2 9.7 0.00 0.05 0.05 87 1014.0
20260505073504 18 104 3.2 4.8 0.00 0.05 0.05 88 1014.1
20260505073003 18 94 3.2 4.8 0.00 0.05 0.05 88 1014.0
20260505072504 18 101 3.2 11.3 0.00 0.05 0.05 88 1014.2
20260505072003 18 91 3.2 4.8 0.00 0.05 0.05 88 1014.2
20260505071504 18 101 4.8 11.3 0.03 0.05 0.05 89 1014.2
20260505071003 18 106 1.6 4.8 0.03 0.05 0.05 89 1014.2
20260505070504 18 108 3.2 9.7 0.03 0.05 0.05 89 1014.2
20260505070004 18 97 3.2 11.3 0.03 0.05 0.05 89 1014.3
20260505065504 18 96 1.6 4.8 0.03 0.05 0.05 90 1014.4
20260505065003 18 111 1.6 11.3 0.03 0.05 0.05 90 1014.2
20260505064503 18 111 3.2 4.8 0.03 0.05 0.05 90 1014.1
20260505064004 17 93 3.2 9.7 0.03 0.05 0.05 90 1014.1
20260505063504 17 97 3.2 9.7 0.03 0.05 0.05 90 1014.2
20260505062504 17 83 3.2 4.8 0.03 0.05 0.05 90 1014.3
20260505062003 17 82 1.6 4.8 0.03 0.05 0.05 90 1014.4
20260505061504 17 80 1.6 3.2 0.00 0.05 0.05 90 1014.5
20260505061004 17 79 1.6 3.2 0.00 0.05 0.05 90 1014.4
20260505060504 17 79 1.6 4.8 0.00 0.05 0.05 90 1014.2
20260505060004 17 77 1.6 4.8 0.00 0.05 0.05 90 1014.1
20260505055004 17 75 3.2 4.8 0.00 0.05 0.05 90 1014.2
20260505054504 17 86 3.2 9.7 0.00 0.05 0.05 90 1014.2
20260505054003 17 87 3.2 4.8 0.00 0.05 0.05 90 1014.2
20260505053504 17 95 3.2 4.8 0.00 0.05 0.05 90 1014.4
20260505053003 18 92 1.6 4.8 0.00 0.05 0.05 90 1014.4
20260505052504 18 91 0.0 1.6 0.00 0.05 0.05 90 1014.3
20260505052004 18 91 0.0 1.6 0.00 0.05 0.05 90 1014.2
20260505051503 18 91 0.0 4.8 0.00 0.05 0.05 90 1014.1
20260505050503 18 87 1.6 4.8 0.00 0.05 0.05 90 1014.0
20260505041003 17 92 0.0 4.8 0.00 0.05 0.05 88 1013.7
20260505040504 17 84 3.2 4.8 0.00 0.05 0.05 88 1013.9
20260505040004 17 281 1.6 4.8 0.00 0.05 0.05 88 1014.1
20260505035504 17 280 1.6 4.8 0.00 0.05 0.05 88 1014.2
20260505034504 17 295 1.6 4.8 0.00 0.05 0.05 89 1013.7
20260505034004 17 314 1.6 4.8 0.00 0.05 0.05 89 1013.6
20260505033503 17 67 1.6 3.2 0.00 0.05 0.05 89 1013.5
20260505033004 17 67 0.0 0.0 0.00 0.05 0.05 89 1013.4
20260505032503 17 67 0.0 0.0 0.00 0.05 0.05 89 1013.5
20260505032004 17 67 0.0 0.0 0.00 0.05 0.05 89 1013.6
20260505031503 17 67 0.0 0.0 0.03 0.05 0.05 89 1013.7
20260505030503 17 67 0.0 4.8 0.05 0.05 0.05 89 1013.6
20260505030004 17 67 1.6 4.8 0.05 0.05 0.05 89 1013.6
20260505025503 17 67 1.6 9.7 0.05 0.05 0.05 89 1013.5
20260505025004 17 86 3.2 4.8 0.05 0.05 0.05 89 1013.7
20260505024504 17 88 1.6 4.8 0.05 0.05 0.05 89 1013.8
20260505023504 17 74 3.2 4.8 0.05 0.05 0.05 89 1013.6
20260505023003 17 84 4.8 9.7 0.05 0.05 0.05 89 1013.6
20260505022504 18 88 3.2 9.7 0.05 0.05 0.05 89 1013.6
20260505022004 18 91 4.8 11.3 0.05 0.05 0.05 88 1013.9
20260505021504 18 86 4.8 11.3 0.03 0.03 0.03 88 1014.3
20260505021003 18 87 1.6 3.2 0.03 0.03 0.03 88 1014.8
20260505020504 18 87 0.0 3.2 0.00 0.00 0.00 88 1014.8
20260505020004 18 87 1.6 3.2 0.00 0.00 0.00 88 1014.7
20260505015504 18 86 0.0 4.8 0.00 0.00 0.00 88 1014.3
20260505015004 18 86 1.6 4.8 0.00 0.00 0.00 88 1014.4
20260505014504 18 86 3.2 4.8 0.00 0.00 0.00 88 1014.4
20260505014004 18 82 1.6 3.2 0.00 0.00 0.00 88 1014.3
20260505013503 18 81 1.6 4.8 0.00 0.00 0.00 88 1014.4
20260505013004 18 81 1.6 4.8 0.00 0.00 0.00 88 1014.3
20260505012504 18 83 1.6 4.8 0.00 0.00 0.00 88 1014.3
20260505012003 18 85 0.0 4.8 0.00 0.00 0.00 89 1014.5
20260505011504 18 119 1.6 8.0 0.00 0.00 0.00 89 1014.5
20260505011004 18 95 3.2 4.8 0.00 0.00 0.00 89 1014.4
20260505010504 18 112 3.2 4.8 0.00 0.00 0.00 90 1014.6
20260505010004 18 105 3.2 9.7 0.00 0.00 0.00 90 1014.5
20260505005504 18 112 3.2 8.0 0.00 0.00 0.00 90 1014.5
20260505004504 18 103 3.2 9.7 0.00 0.00 0.00 90 1014.4
20260505004004 18 85 4.8 11.3 0.00 0.00 0.00 90 1014.4
20260505003503 18 98 6.4 12.9 0.00 0.00 0.00 90 1014.5
20260505003004 18 131 3.2 9.7 0.00 0.00 0.00 91 1014.6
20260505002504 18 110 4.8 11.3 0.00 0.00 0.00 91 1014.7
20260505002004 18 107 4.8 11.3 0.00 0.00 0.00 91 1014.7
20260505001004 18 109 4.8 11.3 0.00 0.00 0.00 91 1014.9
20260505000004 18 147 4.8 9.7 0.00 0.00 0.00 91 1015.2
20260504235504 18 134 3.2 8.0 0.00 0.00 0.00 91 1015.3
20260504235004 18 141 4.8 9.7 0.00 0.00 0.00 91 1015.3
20260504234503 18 146 3.2 9.7 0.00 0.00 0.00 91 1015.2
20260504234003 18 116 3.2 4.8 0.00 0.00 0.00 91 1015.2
20260504233504 18 117 3.2 12.9 0.00 0.00 0.00 91 1015.1
20260504233003 18 109 1.6 11.3 0.00 0.00 0.00 91 1015.1
20260504232504 18 105 4.8 11.3 0.00 0.00 0.00 91 1015.4
20260504232004 18 100 3.2 9.7 0.00 0.00 0.00 91 1015.4
20260504231503 18 129 3.2 4.8 0.00 0.00 0.00 91 1015.4
20260504231004 18 106 3.2 9.7 0.00 0.00 0.00 91 1015.4